Year,Month,Day,Hour,Minute,Value (Times are PST for temperature in C)
2014,08,10,00,00,16.90
2014,08,10,00,01,16.90
2014,08,10,00,02,16.90
2014,08,10,00,03,16.90
2014,08,10,00,04,16.90
2014,08,10,00,05,16.90
2014,08,10,00,06,16.80
2014,08,10,00,07,16.80
2014,08,10,00,08,16.80
2014,08,10,00,09,16.80
2014,08,10,00,10,16.80
2014,08,10,00,11,16.80
2014,08,10,00,12,16.80
2014,08,10,00,13,16.70
2014,08,10,00,14,16.70
2014,08,10,00,15,16.70
2014,08,10,00,16,16.70
2014,08,10,00,17,16.70
2014,08,10,00,18,16.70
2014,08,10,00,19,16.70
2014,08,10,00,20,16.70
2014,08,10,00,21,16.70
2014,08,10,00,22,16.70
2014,08,10,00,23,16.60
2014,08,10,00,24,16.60
2014,08,10,00,25,16.60
2014,08,10,00,26,16.60
2014,08,10,00,27,16.60
2014,08,10,00,28,16.60
2014,08,10,00,29,16.50
2014,08,10,00,30,16.40
2014,08,10,00,31,16.40
2014,08,10,00,32,16.40
2014,08,10,00,33,16.40
2014,08,10,00,34,16.40
2014,08,10,00,35,16.40
2014,08,10,00,36,16.40
2014,08,10,00,37,16.40
2014,08,10,00,38,16.40
2014,08,10,00,39,16.40
2014,08,10,00,40,16.40
2014,08,10,00,41,16.40
2014,08,10,00,42,16.40
2014,08,10,00,43,16.30
2014,08,10,00,44,16.30
2014,08,10,00,45,16.30
2014,08,10,00,46,16.30
2014,08,10,00,47,16.30
2014,08,10,00,48,16.30
2014,08,10,00,49,16.30
2014,08,10,00,50,16.30
2014,08,10,00,51,16.20
2014,08,10,00,52,16.20
2014,08,10,00,53,16.20
2014,08,10,00,54,16.20
2014,08,10,00,55,16.20
2014,08,10,00,56,16.20
2014,08,10,00,57,16.10
2014,08,10,00,58,16.10
2014,08,10,00,59,16.10
2014,08,10,01,00,16.10
2014,08,10,01,01,16.10
2014,08,10,01,02,16.10
2014,08,10,01,03,16.10
2014,08,10,01,04,16.10
2014,08,10,01,05,16.10
2014,08,10,01,06,15.90
2014,08,10,01,07,15.90
2014,08,10,01,08,15.90
2014,08,10,01,09,15.90
2014,08,10,01,10,15.90
2014,08,10,01,11,15.80
2014,08,10,01,12,15.80
2014,08,10,01,13,15.80
2014,08,10,01,14,15.80
2014,08,10,01,15,15.80
2014,08,10,01,16,15.80
2014,08,10,01,17,15.80
2014,08,10,01,18,15.80
2014,08,10,01,19,15.80
2014,08,10,01,20,15.80
2014,08,10,01,21,15.70
2014,08,10,01,22,15.70
2014,08,10,01,23,15.70
2014,08,10,01,24,15.70
2014,08,10,01,25,15.70
2014,08,10,01,26,15.70
2014,08,10,01,27,15.60
2014,08,10,01,28,15.60
2014,08,10,01,29,15.60
2014,08,10,01,30,15.60
2014,08,10,01,31,15.60
2014,08,10,01,32,15.50
2014,08,10,01,33,15.50
2014,08,10,01,34,15.50
2014,08,10,01,35,15.50
2014,08,10,01,36,15.50
2014,08,10,01,37,15.40
2014,08,10,01,38,15.40
2014,08,10,01,39,15.40
2014,08,10,01,40,15.40
2014,08,10,01,41,15.30
2014,08,10,01,42,15.30
2014,08,10,01,43,15.30
2014,08,10,01,44,15.30
2014,08,10,01,45,15.30
2014,08,10,01,46,15.30
2014,08,10,01,47,15.30
2014,08,10,01,48,15.30
2014,08,10,01,49,15.30
2014,08,10,01,50,15.20
2014,08,10,01,51,15.20
2014,08,10,01,52,15.20
2014,08,10,01,53,15.20
2014,08,10,01,54,15.20
2014,08,10,01,55,15.20
2014,08,10,01,56,15.10
2014,08,10,01,57,15.10
2014,08,10,01,58,15.10
2014,08,10,01,59,15.10
2014,08,10,02,00,15.10
2014,08,10,02,01,15.10
2014,08,10,02,02,15.10
2014,08,10,02,03,15.10
2014,08,10,02,04,15.10
2014,08,10,02,05,15.00
2014,08,10,02,06,15.00
2014,08,10,02,07,15.00
2014,08,10,02,08,15.00
2014,08,10,02,09,15.00
2014,08,10,02,10,15.00
2014,08,10,02,11,15.00
2014,08,10,02,12,14.90
2014,08,10,02,13,14.90
2014,08,10,02,14,14.90
2014,08,10,02,15,14.90
2014,08,10,02,16,14.90
2014,08,10,02,17,14.90
2014,08,10,02,18,14.90
2014,08,10,02,19,14.90
2014,08,10,02,20,14.80
2014,08,10,02,21,14.80
2014,08,10,02,22,14.80
2014,08,10,02,23,14.80
2014,08,10,02,24,14.80
2014,08,10,02,25,14.80
2014,08,10,02,26,14.80
2014,08,10,02,27,14.80
2014,08,10,02,28,14.80
2014,08,10,02,29,14.80
2014,08,10,02,30,14.80
2014,08,10,02,31,14.80
2014,08,10,02,32,14.80
2014,08,10,02,33,14.80
2014,08,10,02,34,14.80
2014,08,10,02,35,14.80
2014,08,10,02,36,14.80
2014,08,10,02,37,14.70
2014,08,10,02,38,14.70
2014,08,10,02,39,14.70
2014,08,10,02,40,14.70
2014,08,10,02,41,14.70
2014,08,10,02,42,14.70
2014,08,10,02,43,14.60
2014,08,10,02,44,14.60
2014,08,10,02,45,14.60
2014,08,10,02,46,14.60
2014,08,10,02,47,14.60
2014,08,10,02,48,14.60
2014,08,10,02,49,14.60
2014,08,10,02,50,14.60
2014,08,10,02,51,14.60
2014,08,10,02,52,14.60
2014,08,10,02,53,14.60
2014,08,10,02,54,14.50
2014,08,10,02,55,14.50
2014,08,10,02,56,14.50
2014,08,10,02,57,14.60
2014,08,10,02,58,14.60
2014,08,10,02,59,14.60
2014,08,10,03,00,14.60
2014,08,10,03,01,14.60
2014,08,10,03,02,14.60
2014,08,10,03,03,14.60
2014,08,10,03,04,14.60
2014,08,10,03,05,14.60
2014,08,10,03,06,14.60
2014,08,10,03,07,14.60
2014,08,10,03,08,14.60
2014,08,10,03,09,14.50
2014,08,10,03,10,14.50
2014,08,10,03,11,14.50
2014,08,10,03,12,14.50
2014,08,10,03,13,14.50
2014,08,10,03,14,14.50
2014,08,10,03,15,14.50
2014,08,10,03,16,14.50
2014,08,10,03,17,14.50
2014,08,10,03,18,14.50
2014,08,10,03,19,14.50
2014,08,10,03,20,14.40
2014,08,10,03,21,14.40
2014,08,10,03,22,14.40
2014,08,10,03,23,14.40
2014,08,10,03,24,14.40
2014,08,10,03,25,14.40
2014,08,10,03,26,14.30
2014,08,10,03,27,14.30
2014,08,10,03,28,14.30
2014,08,10,03,29,14.30
2014,08,10,03,30,14.30
2014,08,10,03,31,14.30
2014,08,10,03,32,14.30
2014,08,10,03,33,14.30
2014,08,10,03,34,14.30
2014,08,10,03,35,14.30
2014,08,10,03,36,14.30
2014,08,10,03,37,14.30
2014,08,10,03,38,14.30
2014,08,10,03,39,14.30
2014,08,10,03,40,14.30
2014,08,10,03,41,14.30
2014,08,10,03,42,14.40
2014,08,10,03,43,14.40
2014,08,10,03,44,14.40
2014,08,10,03,45,14.40
2014,08,10,03,46,14.40
2014,08,10,03,47,14.40
2014,08,10,03,48,14.40
2014,08,10,03,49,14.40
2014,08,10,03,50,14.40
2014,08,10,03,51,14.40
2014,08,10,03,52,14.40
2014,08,10,03,53,14.30
2014,08,10,03,54,14.30
2014,08,10,03,55,14.30
2014,08,10,03,56,14.30
2014,08,10,03,57,14.30
2014,08,10,03,58,14.20
2014,08,10,03,59,14.20
2014,08,10,04,00,14.20
2014,08,10,04,01,14.20
2014,08,10,04,02,14.20
2014,08,10,04,03,14.20
2014,08,10,04,04,14.20
2014,08,10,04,05,14.20
2014,08,10,04,06,14.20
2014,08,10,04,07,14.20
2014,08,10,04,08,14.20
2014,08,10,04,09,14.20
2014,08,10,04,10,14.20
2014,08,10,04,11,14.20
2014,08,10,04,12,14.20
2014,08,10,04,13,14.20
2014,08,10,04,14,14.10
2014,08,10,04,15,14.10
2014,08,10,04,16,14.10
2014,08,10,04,17,14.10
2014,08,10,04,18,14.10
2014,08,10,04,19,14.00
2014,08,10,04,20,14.00
2014,08,10,04,21,14.10
2014,08,10,04,22,14.10
2014,08,10,04,23,14.10
2014,08,10,04,24,14.10
2014,08,10,04,25,14.10
2014,08,10,04,26,14.00
2014,08,10,04,27,14.00
2014,08,10,04,28,14.00
2014,08,10,04,29,14.00
2014,08,10,04,30,14.00
2014,08,10,04,31,14.00
2014,08,10,04,32,14.00
2014,08,10,04,33,14.00
2014,08,10,04,34,14.00
2014,08,10,04,35,14.00
2014,08,10,04,36,13.90
2014,08,10,04,37,13.90
2014,08,10,04,38,13.90
2014,08,10,04,39,13.90
2014,08,10,04,40,13.90
2014,08,10,04,41,13.90
2014,08,10,04,42,13.90
2014,08,10,04,43,13.90
2014,08,10,04,44,13.90
2014,08,10,04,45,13.90
2014,08,10,04,46,13.90
2014,08,10,04,47,13.90
2014,08,10,04,48,13.90
2014,08,10,04,49,13.90
2014,08,10,04,50,13.90
2014,08,10,04,51,13.90
2014,08,10,04,52,13.90
2014,08,10,04,53,13.80
2014,08,10,04,54,13.80
2014,08,10,04,55,13.80
2014,08,10,04,56,13.80
2014,08,10,04,57,13.80
2014,08,10,04,58,13.70
2014,08,10,04,59,13.70
2014,08,10,05,00,13.70
2014,08,10,05,01,13.70
2014,08,10,05,02,13.70
2014,08,10,05,03,13.70
2014,08,10,05,04,13.60
2014,08,10,05,05,13.60
2014,08,10,05,06,13.60
2014,08,10,05,07,13.60
2014,08,10,05,08,13.60
2014,08,10,05,09,13.60
2014,08,10,05,10,13.60
2014,08,10,05,11,13.60
2014,08,10,05,12,13.60
2014,08,10,05,13,13.60
2014,08,10,05,14,13.60
2014,08,10,05,15,13.60
2014,08,10,05,16,13.60
2014,08,10,05,17,13.60
2014,08,10,05,18,13.60
2014,08,10,05,19,13.60
2014,08,10,05,20,13.60
2014,08,10,05,21,13.60
2014,08,10,05,22,13.60
2014,08,10,05,23,13.60
2014,08,10,05,24,13.50
2014,08,10,05,25,13.50
2014,08,10,05,26,13.50
2014,08,10,05,27,13.50
2014,08,10,05,28,13.50
2014,08,10,05,29,13.50
2014,08,10,05,30,13.50
2014,08,10,05,31,13.50
2014,08,10,05,32,13.50
2014,08,10,05,33,13.50
2014,08,10,05,34,13.50
2014,08,10,05,35,13.50
2014,08,10,05,36,13.40
2014,08,10,05,37,13.40
2014,08,10,05,38,13.40
2014,08,10,05,39,13.40
2014,08,10,05,40,13.40
2014,08,10,05,41,13.40
2014,08,10,05,42,13.30
2014,08,10,05,43,13.30
2014,08,10,05,44,13.30
2014,08,10,05,45,13.30
2014,08,10,05,46,13.30
2014,08,10,05,47,13.30
2014,08,10,05,48,13.30
2014,08,10,05,49,13.30
2014,08,10,05,50,13.30
2014,08,10,05,51,13.30
2014,08,10,05,52,13.30
2014,08,10,05,53,13.30
2014,08,10,05,54,13.30
2014,08,10,05,55,13.30
2014,08,10,05,56,13.30
2014,08,10,05,57,13.30
2014,08,10,05,58,13.30
2014,08,10,05,59,13.30
2014,08,10,06,00,13.30
2014,08,10,06,01,13.30
2014,08,10,06,02,13.30
2014,08,10,06,03,13.40
2014,08,10,06,04,13.40
2014,08,10,06,05,13.50
2014,08,10,06,06,13.50
2014,08,10,06,07,13.60
2014,08,10,06,08,13.60
2014,08,10,06,09,13.70
2014,08,10,06,10,13.70
2014,08,10,06,11,13.80
2014,08,10,06,12,13.80
2014,08,10,06,13,13.90
2014,08,10,06,14,13.90
2014,08,10,06,15,14.00
2014,08,10,06,16,14.00
2014,08,10,06,17,14.00
2014,08,10,06,18,14.10
2014,08,10,06,19,14.20
2014,08,10,06,20,14.20
2014,08,10,06,21,14.20
2014,08,10,06,22,14.20
2014,08,10,06,23,14.30
2014,08,10,06,24,14.30
2014,08,10,06,25,14.30
2014,08,10,06,26,14.30
2014,08,10,06,27,14.30
2014,08,10,06,28,14.30
2014,08,10,06,29,14.30
2014,08,10,06,30,14.30
2014,08,10,06,31,14.30
2014,08,10,06,32,14.30
2014,08,10,06,33,14.20
2014,08,10,06,34,14.20
2014,08,10,06,35,14.20
2014,08,10,06,36,14.10
2014,08,10,06,37,14.10
2014,08,10,06,38,14.00
2014,08,10,06,39,14.00
2014,08,10,06,40,13.90
2014,08,10,06,41,13.90
2014,08,10,06,42,13.90
2014,08,10,06,43,13.90
2014,08,10,06,44,13.90
2014,08,10,06,45,13.80
2014,08,10,06,46,13.80
2014,08,10,06,47,13.80
2014,08,10,06,48,13.90
2014,08,10,06,49,13.90
2014,08,10,06,50,13.90
2014,08,10,06,51,13.90
2014,08,10,06,52,13.90
2014,08,10,06,53,14.00
2014,08,10,06,54,14.00
2014,08,10,06,55,14.10
2014,08,10,06,56,14.20
2014,08,10,06,57,14.20
2014,08,10,06,58,14.30
2014,08,10,06,59,14.40
2014,08,10,07,00,14.40
2014,08,10,07,01,14.50
2014,08,10,07,02,14.50
2014,08,10,07,03,14.60
2014,08,10,07,04,14.60
2014,08,10,07,05,14.60
2014,08,10,07,06,14.70
2014,08,10,07,07,14.70
2014,08,10,07,08,14.80
2014,08,10,07,09,14.80
2014,08,10,07,10,14.80
2014,08,10,07,11,14.80
2014,08,10,07,12,14.90
2014,08,10,07,13,14.90
2014,08,10,07,14,14.90
2014,08,10,07,15,15.00
2014,08,10,07,16,15.00
2014,08,10,07,17,15.00
2014,08,10,07,18,15.10
2014,08,10,07,19,15.10
2014,08,10,07,20,15.10
2014,08,10,07,21,15.20
2014,08,10,07,22,15.20
2014,08,10,07,23,15.20
2014,08,10,07,24,15.30
2014,08,10,07,25,15.30
2014,08,10,07,26,15.30
2014,08,10,07,27,15.40
2014,08,10,07,28,15.50
2014,08,10,07,29,15.50
2014,08,10,07,30,15.60
2014,08,10,07,31,15.70
2014,08,10,07,32,15.70
2014,08,10,07,33,15.70
2014,08,10,07,34,15.80
2014,08,10,07,35,15.80
2014,08,10,07,36,15.80
2014,08,10,07,37,15.80
2014,08,10,07,38,15.80
2014,08,10,07,39,15.80
2014,08,10,07,40,15.80
2014,08,10,07,41,15.80
2014,08,10,07,42,15.80
2014,08,10,07,43,15.80
2014,08,10,07,44,15.90
2014,08,10,07,45,15.90
2014,08,10,07,46,16.00
2014,08,10,07,47,16.10
2014,08,10,07,48,16.10
2014,08,10,07,49,16.10
2014,08,10,07,50,16.20
2014,08,10,07,51,16.30
2014,08,10,07,52,16.40
2014,08,10,07,53,16.40
2014,08,10,07,54,16.50
2014,08,10,07,55,16.60
2014,08,10,07,56,16.70
2014,08,10,07,57,16.80
2014,08,10,07,58,16.90
2014,08,10,07,59,16.90
2014,08,10,08,00,17.00
2014,08,10,08,01,17.00
2014,08,10,08,02,17.10
2014,08,10,08,03,17.20
2014,08,10,08,04,17.30
2014,08,10,08,05,17.30
2014,08,10,08,06,17.30
2014,08,10,08,07,17.40
2014,08,10,08,08,17.40
2014,08,10,08,09,17.50
2014,08,10,08,10,17.60
2014,08,10,08,11,17.60
2014,08,10,08,12,17.70
2014,08,10,08,13,17.80
2014,08,10,08,14,17.80
2014,08,10,08,15,17.90
2014,08,10,08,16,18.00
2014,08,10,08,17,18.20
2014,08,10,08,18,18.20
2014,08,10,08,19,18.40
2014,08,10,08,20,18.50
2014,08,10,08,21,18.60
2014,08,10,08,22,18.70
2014,08,10,08,23,18.80
2014,08,10,08,24,18.90
2014,08,10,08,25,19.00
2014,08,10,08,26,19.10
2014,08,10,08,27,19.20
2014,08,10,08,28,19.30
2014,08,10,08,29,19.40
2014,08,10,08,30,19.40
2014,08,10,08,31,19.50
2014,08,10,08,32,19.50
2014,08,10,08,33,19.60
2014,08,10,08,34,19.60
2014,08,10,08,35,19.70
2014,08,10,08,36,19.70
2014,08,10,08,37,19.70
2014,08,10,08,38,19.70
2014,08,10,08,39,19.70
2014,08,10,08,40,19.70
2014,08,10,08,41,19.70
2014,08,10,08,42,19.70
2014,08,10,08,43,19.70
2014,08,10,08,44,19.70
2014,08,10,08,45,19.80
2014,08,10,08,46,19.80
2014,08,10,08,47,19.90
2014,08,10,08,48,19.90
2014,08,10,08,49,19.90
2014,08,10,08,50,19.90
2014,08,10,08,51,19.90
2014,08,10,08,52,19.90
2014,08,10,08,53,19.90
2014,08,10,08,54,19.90
2014,08,10,08,55,19.90
2014,08,10,08,56,20.00
2014,08,10,08,57,20.10
2014,08,10,08,58,20.10
2014,08,10,08,59,20.20
2014,08,10,09,00,20.20
2014,08,10,09,01,20.20
2014,08,10,09,02,20.30
2014,08,10,09,03,20.30
2014,08,10,09,04,20.30
2014,08,10,09,05,20.40
2014,08,10,09,06,20.40
2014,08,10,09,07,20.40
2014,08,10,09,08,20.40
2014,08,10,09,09,20.40
2014,08,10,09,10,20.40
2014,08,10,09,11,20.50
2014,08,10,09,12,20.50
2014,08,10,09,13,20.50
2014,08,10,09,14,20.50
2014,08,10,09,15,20.50
2014,08,10,09,16,20.50
2014,08,10,09,17,20.40
2014,08,10,09,18,20.40
2014,08,10,09,19,20.40
2014,08,10,09,20,20.40
2014,08,10,09,21,20.30
2014,08,10,09,22,20.30
2014,08,10,09,23,20.30
2014,08,10,09,24,20.20
2014,08,10,09,25,20.20
2014,08,10,09,26,20.20
2014,08,10,09,27,20.20
2014,08,10,09,28,20.20
2014,08,10,09,29,20.20
2014,08,10,09,30,20.20
2014,08,10,09,31,20.20
2014,08,10,09,32,20.20
2014,08,10,09,33,20.20
2014,08,10,09,34,20.30
2014,08,10,09,35,20.30
2014,08,10,09,36,20.30
2014,08,10,09,37,20.40
2014,08,10,09,38,20.40
2014,08,10,09,39,20.50
2014,08,10,09,40,20.50
2014,08,10,09,41,20.60
2014,08,10,09,42,20.60
2014,08,10,09,43,20.70
2014,08,10,09,44,20.80
2014,08,10,09,45,20.90
2014,08,10,09,46,21.00
2014,08,10,09,47,21.00
2014,08,10,09,48,21.10
2014,08,10,09,49,21.10
2014,08,10,09,50,21.10
2014,08,10,09,51,21.10
2014,08,10,09,52,21.10
2014,08,10,09,53,21.10
2014,08,10,09,54,21.20
2014,08,10,09,55,21.20
2014,08,10,09,56,21.10
2014,08,10,09,57,21.10
2014,08,10,09,58,21.10
2014,08,10,09,59,21.10
2014,08,10,10,00,21.10
2014,08,10,10,01,21.10
2014,08,10,10,02,21.20
2014,08,10,10,03,21.20
2014,08,10,10,04,21.20
2014,08,10,10,05,21.20
2014,08,10,10,06,21.30
2014,08,10,10,07,21.30
2014,08,10,10,08,21.30
2014,08,10,10,09,21.40
2014,08,10,10,10,21.50
2014,08,10,10,11,21.60
2014,08,10,10,12,21.60
2014,08,10,10,13,21.60
2014,08,10,10,14,21.70
2014,08,10,10,15,21.80
2014,08,10,10,16,22.00
2014,08,10,10,17,22.00
2014,08,10,10,18,21.90
2014,08,10,10,19,21.90
2014,08,10,10,20,21.90
2014,08,10,10,21,21.90
2014,08,10,10,22,21.80
2014,08,10,10,23,21.70
2014,08,10,10,24,21.80
2014,08,10,10,25,21.90
2014,08,10,10,26,22.00
2014,08,10,10,27,22.00
2014,08,10,10,28,22.10
2014,08,10,10,29,22.10
2014,08,10,10,30,22.20
2014,08,10,10,31,22.20
2014,08,10,10,32,22.20
2014,08,10,10,33,22.20
2014,08,10,10,34,22.30
2014,08,10,10,35,22.20
2014,08,10,10,36,22.30
2014,08,10,10,37,22.20
2014,08,10,10,38,22.20
2014,08,10,10,39,22.20
2014,08,10,10,40,22.20
2014,08,10,10,41,22.20
2014,08,10,10,42,22.20
2014,08,10,10,43,22.20
2014,08,10,10,44,22.20
2014,08,10,10,45,22.30
2014,08,10,10,46,22.30
2014,08,10,10,47,22.30
2014,08,10,10,48,22.20
2014,08,10,10,49,22.30
2014,08,10,10,50,22.40
2014,08,10,10,51,22.40
2014,08,10,10,52,22.40
2014,08,10,10,53,22.40
2014,08,10,10,54,22.50
2014,08,10,10,55,22.60
2014,08,10,10,56,22.60
2014,08,10,10,57,22.60
2014,08,10,10,58,22.60
2014,08,10,10,59,22.60
2014,08,10,11,00,22.50
2014,08,10,11,01,22.50
2014,08,10,11,02,22.60
2014,08,10,11,03,22.60
2014,08,10,11,04,22.70
2014,08,10,11,05,22.80
2014,08,10,11,06,22.90
2014,08,10,11,07,23.00
2014,08,10,11,08,23.10
2014,08,10,11,09,23.10
2014,08,10,11,10,23.10
2014,08,10,11,11,23.10
2014,08,10,11,12,23.00
2014,08,10,11,13,22.90
2014,08,10,11,14,22.90
2014,08,10,11,15,22.90
2014,08,10,11,16,22.90
2014,08,10,11,17,22.80
2014,08,10,11,18,22.80
2014,08,10,11,19,22.80
2014,08,10,11,20,22.90
2014,08,10,11,21,22.90
2014,08,10,11,22,23.00
2014,08,10,11,23,23.20
2014,08,10,11,24,23.30
2014,08,10,11,25,23.30
2014,08,10,11,26,23.40
2014,08,10,11,27,23.50
2014,08,10,11,28,23.60
2014,08,10,11,29,23.70
2014,08,10,11,30,23.70
2014,08,10,11,31,23.80
2014,08,10,11,32,23.90
2014,08,10,11,33,23.90
2014,08,10,11,34,23.80
2014,08,10,11,35,23.70
2014,08,10,11,36,23.70
2014,08,10,11,37,23.70
2014,08,10,11,38,23.80
2014,08,10,11,39,23.90
2014,08,10,11,40,23.90
2014,08,10,11,41,23.90
2014,08,10,11,42,23.90
2014,08,10,11,43,23.90
2014,08,10,11,44,24.00
2014,08,10,11,45,24.10
2014,08,10,11,46,24.00
2014,08,10,11,47,23.90
2014,08,10,11,48,23.90
2014,08,10,11,49,23.90
2014,08,10,11,50,24.00
2014,08,10,11,51,24.10
2014,08,10,11,52,24.10
2014,08,10,11,53,24.10
2014,08,10,11,54,24.10
2014,08,10,11,55,24.10
2014,08,10,11,56,24.10
2014,08,10,11,57,24.10
2014,08,10,11,58,24.00
2014,08,10,11,59,24.00
2014,08,10,12,00,24.10
2014,08,10,12,01,24.10
2014,08,10,12,02,24.00
2014,08,10,12,03,23.90
2014,08,10,12,04,23.90
2014,08,10,12,05,23.80
2014,08,10,12,06,23.80
2014,08,10,12,07,23.80
2014,08,10,12,08,23.80
2014,08,10,12,09,23.80
2014,08,10,12,10,23.80
2014,08,10,12,11,23.70
2014,08,10,12,12,23.70
2014,08,10,12,13,23.80
2014,08,10,12,14,23.90
2014,08,10,12,15,24.00
2014,08,10,12,16,24.10
2014,08,10,12,17,24.10
2014,08,10,12,18,24.10
2014,08,10,12,19,24.20
2014,08,10,12,20,24.30
2014,08,10,12,21,24.30
2014,08,10,12,22,24.30
2014,08,10,12,23,24.40
2014,08,10,12,24,24.50
2014,08,10,12,25,24.60
2014,08,10,12,26,24.80
2014,08,10,12,27,24.90
2014,08,10,12,28,24.90
2014,08,10,12,29,24.90
2014,08,10,12,30,24.80
2014,08,10,12,31,24.80
2014,08,10,12,32,24.80
2014,08,10,12,33,24.80
2014,08,10,12,34,24.80
2014,08,10,12,35,24.80
2014,08,10,12,36,24.80
2014,08,10,12,37,24.80
2014,08,10,12,38,24.80
2014,08,10,12,39,24.80
2014,08,10,12,40,24.80
2014,08,10,12,41,24.80
2014,08,10,12,42,24.80
2014,08,10,12,43,24.80
2014,08,10,12,44,24.80
2014,08,10,12,45,24.80
2014,08,10,12,46,24.80
2014,08,10,12,47,24.70
2014,08,10,12,48,24.70
2014,08,10,12,49,24.80
2014,08,10,12,50,24.80
2014,08,10,12,51,24.80
2014,08,10,12,52,24.90
2014,08,10,12,53,25.00
2014,08,10,12,54,25.00
2014,08,10,12,55,25.10
2014,08,10,12,56,25.10
2014,08,10,12,57,25.20
2014,08,10,12,58,25.20
2014,08,10,12,59,25.30
2014,08,10,13,00,25.30
2014,08,10,13,01,25.30
2014,08,10,13,02,25.30
2014,08,10,13,03,25.40
2014,08,10,13,04,25.40
2014,08,10,13,05,25.50
2014,08,10,13,06,25.50
2014,08,10,13,07,25.60
2014,08,10,13,08,25.60
2014,08,10,13,09,25.70
2014,08,10,13,10,25.70
2014,08,10,13,11,25.70
2014,08,10,13,12,25.80
2014,08,10,13,13,25.90
2014,08,10,13,14,25.90
2014,08,10,13,15,26.00
2014,08,10,13,16,26.10
2014,08,10,13,17,26.20
2014,08,10,13,18,26.10
2014,08,10,13,19,26.00
2014,08,10,13,20,26.00
2014,08,10,13,21,25.90
2014,08,10,13,22,25.90
2014,08,10,13,23,25.80
2014,08,10,13,24,25.90
2014,08,10,13,25,25.80
2014,08,10,13,26,25.80
2014,08,10,13,27,25.70
2014,08,10,13,28,25.70
2014,08,10,13,29,25.60
2014,08,10,13,30,25.50
2014,08,10,13,31,25.40
2014,08,10,13,32,25.40
2014,08,10,13,33,25.40
2014,08,10,13,34,25.40
2014,08,10,13,35,25.50
2014,08,10,13,36,25.60
2014,08,10,13,37,25.70
2014,08,10,13,38,25.70
2014,08,10,13,39,25.70
2014,08,10,13,40,25.70
2014,08,10,13,41,25.80
2014,08,10,13,42,25.90
2014,08,10,13,43,25.90
2014,08,10,13,44,26.00
2014,08,10,13,45,26.10
2014,08,10,13,46,26.10
2014,08,10,13,47,26.10
2014,08,10,13,48,26.10
2014,08,10,13,49,26.10
2014,08,10,13,50,25.90
2014,08,10,13,51,25.80
2014,08,10,13,52,25.70
2014,08,10,13,53,25.60
2014,08,10,13,54,25.60
2014,08,10,13,55,25.70
2014,08,10,13,56,25.70
2014,08,10,13,57,25.70
2014,08,10,13,58,25.80
2014,08,10,13,59,25.90
2014,08,10,14,00,25.90
2014,08,10,14,01,26.00
2014,08,10,14,02,26.00
2014,08,10,14,03,26.10
2014,08,10,14,04,26.10
2014,08,10,14,05,26.00
2014,08,10,14,06,26.00
2014,08,10,14,07,26.00
2014,08,10,14,08,26.10
2014,08,10,14,09,26.10
2014,08,10,14,10,26.00
2014,08,10,14,11,25.90
2014,08,10,14,12,25.80
2014,08,10,14,13,25.70
2014,08,10,14,14,25.60
2014,08,10,14,15,25.50
2014,08,10,14,16,25.40
2014,08,10,14,17,25.40
2014,08,10,14,18,25.30
2014,08,10,14,19,25.30
2014,08,10,14,20,25.30
2014,08,10,14,21,25.30
2014,08,10,14,22,25.30
2014,08,10,14,23,25.20
2014,08,10,14,24,25.10
2014,08,10,14,25,25.20
2014,08,10,14,26,25.20
2014,08,10,14,27,25.30
2014,08,10,14,28,25.40
2014,08,10,14,29,25.40
2014,08,10,14,30,25.30
2014,08,10,14,31,25.30
2014,08,10,14,32,25.30
2014,08,10,14,33,25.30
2014,08,10,14,34,25.40
2014,08,10,14,35,25.40
2014,08,10,14,36,25.30
2014,08,10,14,37,25.30
2014,08,10,14,38,25.40
2014,08,10,14,39,25.50
2014,08,10,14,40,25.50
2014,08,10,14,41,25.60
2014,08,10,14,42,25.60
2014,08,10,14,43,25.60
2014,08,10,14,44,25.60
2014,08,10,14,45,25.70
2014,08,10,14,46,25.90
2014,08,10,14,47,26.00
2014,08,10,14,48,26.20
2014,08,10,14,49,26.30
2014,08,10,14,50,26.40
2014,08,10,14,51,26.40
2014,08,10,14,52,26.20
2014,08,10,14,53,26.10
2014,08,10,14,54,26.10
2014,08,10,14,55,26.10
2014,08,10,14,56,26.20
2014,08,10,14,57,26.10
2014,08,10,14,58,26.10
2014,08,10,14,59,26.10
2014,08,10,15,00,26.20
2014,08,10,15,01,26.30
2014,08,10,15,02,26.40
2014,08,10,15,03,26.50
2014,08,10,15,04,26.60
2014,08,10,15,05,26.60
2014,08,10,15,06,26.50
2014,08,10,15,07,26.40
2014,08,10,15,08,26.20
2014,08,10,15,09,26.20
2014,08,10,15,10,26.10
2014,08,10,15,11,25.90
2014,08,10,15,12,25.90
2014,08,10,15,13,25.80
2014,08,10,15,14,25.80
2014,08,10,15,15,25.70
2014,08,10,15,16,25.60
2014,08,10,15,17,25.60
2014,08,10,15,18,25.60
2014,08,10,15,19,25.60
2014,08,10,15,20,25.70
2014,08,10,15,21,25.80
2014,08,10,15,22,25.80
2014,08,10,15,23,25.80
2014,08,10,15,24,25.70
2014,08,10,15,25,25.70
2014,08,10,15,26,25.70
2014,08,10,15,27,25.80
2014,08,10,15,28,25.90
2014,08,10,15,29,25.90
2014,08,10,15,30,25.90
2014,08,10,15,31,25.90
2014,08,10,15,32,25.90
2014,08,10,15,33,25.80
2014,08,10,15,34,25.80
2014,08,10,15,35,25.90
2014,08,10,15,36,25.90
2014,08,10,15,37,25.90
2014,08,10,15,38,25.90
2014,08,10,15,39,26.00
2014,08,10,15,40,26.00
2014,08,10,15,41,26.00
2014,08,10,15,42,26.00
2014,08,10,15,43,26.10
2014,08,10,15,44,26.20
2014,08,10,15,45,26.20
2014,08,10,15,46,26.20
2014,08,10,15,47,26.20
2014,08,10,15,48,26.20
2014,08,10,15,49,26.20
2014,08,10,15,50,26.20
2014,08,10,15,51,26.10
2014,08,10,15,52,26.10
2014,08,10,15,53,26.10
2014,08,10,15,54,26.10
2014,08,10,15,55,26.30
2014,08,10,15,56,26.30
2014,08,10,15,57,26.30
2014,08,10,15,58,26.20
2014,08,10,15,59,26.10
2014,08,10,16,00,26.20
2014,08,10,16,01,26.20
2014,08,10,16,02,26.30
2014,08,10,16,03,26.40
2014,08,10,16,04,26.40
2014,08,10,16,05,26.60
2014,08,10,16,06,26.60
2014,08,10,16,07,26.60
2014,08,10,16,08,26.70
2014,08,10,16,09,26.70
2014,08,10,16,10,26.70
2014,08,10,16,11,26.70
2014,08,10,16,12,26.70
2014,08,10,16,13,26.80
2014,08,10,16,14,26.70
2014,08,10,16,15,26.70
2014,08,10,16,16,26.70
2014,08,10,16,17,26.60
2014,08,10,16,18,26.60
2014,08,10,16,19,26.60
2014,08,10,16,20,26.60
2014,08,10,16,21,26.60
2014,08,10,16,22,26.60
2014,08,10,16,23,26.60
2014,08,10,16,24,26.60
2014,08,10,16,25,26.60
2014,08,10,16,26,26.60
2014,08,10,16,27,26.60
2014,08,10,16,28,26.60
2014,08,10,16,29,26.60
2014,08,10,16,30,26.60
2014,08,10,16,31,26.60
2014,08,10,16,32,26.60
2014,08,10,16,33,26.60
2014,08,10,16,34,26.60
2014,08,10,16,35,26.60
2014,08,10,16,36,26.60
2014,08,10,16,37,26.50
2014,08,10,16,38,26.40
2014,08,10,16,39,26.30
2014,08,10,16,40,26.20
2014,08,10,16,41,26.10
2014,08,10,16,42,26.10
2014,08,10,16,43,26.10
2014,08,10,16,44,26.10
2014,08,10,16,45,26.10
2014,08,10,16,46,26.10
2014,08,10,16,47,25.90
2014,08,10,16,48,25.70
2014,08,10,16,49,25.50
2014,08,10,16,50,25.40
2014,08,10,16,51,25.20
2014,08,10,16,52,25.20
2014,08,10,16,53,25.20
2014,08,10,16,54,25.20
2014,08,10,16,55,25.30
2014,08,10,16,56,25.40
2014,08,10,16,57,25.50
2014,08,10,16,58,25.70
2014,08,10,16,59,25.80
2014,08,10,17,00,25.90
2014,08,10,17,01,25.90
2014,08,10,17,02,25.90
2014,08,10,17,03,25.90
2014,08,10,17,04,26.00
2014,08,10,17,05,26.10
2014,08,10,17,06,26.10
2014,08,10,17,07,26.20
2014,08,10,17,08,26.20
2014,08,10,17,09,26.20
2014,08,10,17,10,26.30
2014,08,10,17,11,26.20
2014,08,10,17,12,26.20
2014,08,10,17,13,26.20
2014,08,10,17,14,26.30
2014,08,10,17,15,26.40
2014,08,10,17,16,26.50
2014,08,10,17,17,26.60
2014,08,10,17,18,26.60
2014,08,10,17,19,26.60